Flag for U.S.A. Weather past 2 weeks in New York, New York, U.S.A.

Now
33 °F

Sunny.


Feels Like: 26 °F
Forecast: 18 / 30 °F
Wind: 8 mph from Northwest

Location: New York City - Central Park

Current Time: Jan 28, 2015 at 3:24:06 PM

Latest Report: Jan 28, 2015 at 2:51 PM


Visibility: 10 mi

Pressure: 30.07 "Hg

Humidity: 35%

Dew point: 8 °F

Location of New YorkLocation

Historic Weather in New York — Graph

°F

New York temperature yesterday

Maximum temperature yesterday: 30 °F (at 3:51 PM)
Minimum temperature yesterday: 20 °F (at 11:51 PM)
Average temperature yesterday: 24 °F

Past Weeks' High & Low Weather Summary

 TemperatureHumidityPressure
High43 °F (Jan 16, 1:51 PM)93% (Jan 18, 1:51 PM)30.65 "Hg (Jan 18, 1:51 PM)
Low17 °F (Jan 13, 10:51 PM)25% (Jan 21, 3:51 PM)29.28 "Hg (Jan 24, 2:51 PM)
Average31 °F56%30.00 "Hg
* Reported Jan 13 1:51 PM — Jan 28 1:51 PM, New York, Weather by CustomWeather, © 2014

Note: Actual official high and low records may vary slightly from our data, if they occured in-between our weather recording intervals... More about our weather records

Advertising

New York weather history for previous 24 hours

 ConditionsComfort  
Time TempWeatherWind HumidityBarometerVisibility
1:51 PM
Jan 28
31 °FSunny.7 mph38%30.06 "Hg10 mi
12:51 PM30 °FSunny.14 mph38%30.05 "Hg10 mi
11:51 AM27 °FSunny.13 mph41%30.05 "Hg10 mi
10:51 AM24 °FSunny.9 mph42%30.05 "Hg10 mi
9:51 AM21 °FSunny.10 mph41%30.04 "Hg10 mi
8:51 AM19 °FScattered clouds.13 mph41%30.02 "Hg10 mi
7:51 AM18 °FSunny.7 mph41%29.99 "Hg10 mi
6:51 AM17 °FClear.9 mph42%29.98 "Hg10 mi
5:51 AM17 °FClear.8 mph42%29.94 "Hg10 mi
4:51 AM17 °FClear.12 mph42%29.92 "Hg10 mi
3:51 AM17 °FClear.8 mph45%29.91 "Hg10 mi
2:51 AM17 °FClear.7 mph47%29.90 "Hg10 mi
1:51 AM18 °FClear.10 mph52%29.87 "Hg10 mi
12:51 AM18 °FClear.5 mph59%29.85 "Hg10 mi
11:51 PM
Jan 27
20 °FClear.8 mph55%29.84 "Hg10 mi
10:51 PM21 °FClear.10 mph50%29.82 "Hg10 mi
9:51 PM22 °FClear.8 mph52%29.80 "Hg10 mi
8:51 PM24 °FClear.12 mph52%29.77 "Hg10 mi
7:51 PM26 °FPassing clouds.7 mph60%29.74 "Hg10 mi
6:51 PM26 °FPassing clouds.5 mph60%29.72 "Hg10 mi
5:51 PM26 °FClear.5 mph63%29.69 "Hg10 mi
4:51 PM26 °FSunny.9 mph63%29.67 "Hg10 mi
3:51 PM30 °FSunny.7 mph59%29.65 "Hg10 mi
Weather by CustomWeather, © 2014

See weather overviewHow to use our weather pages